TimeEDT,TemperatureF,Dew PointF,Humidity,Sea Level PressureIn,VisibilityMPH,Wind Direction,Wind SpeedMPH,Gust SpeedMPH,PrecipitationIn,Events,Conditions,WindDirDegrees,DateUTC
12:53 AM,66.9,64.0,90,30.17,10.0,Calm,Calm,-,N/A,,Overcast,0,2013-08-19 04:53:00
1:33 AM,66.2,64.4,94,30.16,2.5,Calm,Calm,-,0.02,Rain,Light Rain,0,2013-08-19 05:33:00
1:41 AM,66.2,64.4,94,30.16,5.0,Calm,Calm,-,0.02,Rain,Light Rain,0,2013-08-19 05:41:00
1:53 AM,64.9,64.0,97,30.15,5.0,Calm,Calm,-,0.02,Rain,Light Rain,0,2013-08-19 05:53:00
2:38 AM,64.4,64.4,100,30.14,2.5,SSE,3.5,-,0.00,,Overcast,160,2013-08-19 06:38:00
2:53 AM,64.9,64.9,100,30.13,0.5,Calm,Calm,-,0.01,Fog-Rain,Light Rain,0,2013-08-19 06:53:00
3:12 AM,64.4,64.4,100,30.13,0.5,Calm,Calm,-,0.00,Fog,Fog,0,2013-08-19 07:12:00
3:18 AM,64.4,64.4,100,30.13,0.2,Calm,Calm,-,0.00,Fog,Fog,0,2013-08-19 07:18:00
3:28 AM,64.4,64.4,100,30.13,1.0,Calm,Calm,-,0.00,,Overcast,0,2013-08-19 07:28:00
3:32 AM,64.4,64.4,100,30.13,3.0,Calm,Calm,-,0.00,,Overcast,0,2013-08-19 07:32:00
3:50 AM,64.4,64.4,100,30.13,5.0,Calm,Calm,-,0.00,,Overcast,0,2013-08-19 07:50:00
3:53 AM,64.9,64.0,97,30.13,4.0,Calm,Calm,-,0.00,,Overcast,0,2013-08-19 07:53:00
4:07 AM,64.4,64.4,100,30.13,5.0,East,3.5,-,0.01,Rain,Light Rain,100,2013-08-19 08:07:00
4:53 AM,64.9,64.0,97,30.13,4.0,Calm,Calm,-,0.01,,Overcast,0,2013-08-19 08:53:00
5:09 AM,64.4,64.4,100,30.13,3.0,Calm,Calm,-,N/A,,Overcast,0,2013-08-19 09:09:00
5:18 AM,64.4,64.4,100,30.13,4.0,Calm,Calm,-,N/A,,Overcast,0,2013-08-19 09:18:00
5:39 AM,64.4,64.4,100,30.13,2.0,Calm,Calm,-,0.00,Rain,Light Rain,0,2013-08-19 09:39:00
5:53 AM,64.9,64.0,97,30.13,2.0,Calm,Calm,-,0.00,,Overcast,0,2013-08-19 09:53:00
6:01 AM,64.4,64.4,100,30.13,3.0,Calm,Calm,-,N/A,,Overcast,0,2013-08-19 10:01:00
6:14 AM,64.4,64.4,100,30.13,1.8,Calm,Calm,-,0.02,Rain,Light Rain,0,2013-08-19 10:14:00
6:19 AM,64.4,64.4,100,30.13,2.0,Calm,Calm,-,0.02,Rain-Thunderstorm,Light Thunderstorms and Rain,0,2013-08-19 10:19:00
6:33 AM,64.4,64.4,100,30.14,1.0,Calm,Calm,-,0.03,Rain-Thunderstorm,Light Thunderstorms and Rain,0,2013-08-19 10:33:00
6:53 AM,64.9,64.9,100,30.14,0.8,North,3.5,-,0.16,Rain,Heavy Rain,350,2013-08-19 10:53:00
7:10 AM,64.4,64.4,100,30.14,1.0,Calm,Calm,-,0.01,Rain,Light Rain,0,2013-08-19 11:10:00
7:35 AM,64.4,64.4,100,30.14,0.5,Calm,Calm,-,0.05,Fog-Rain,Rain,0,2013-08-19 11:35:00
7:53 AM,64.9,64.9,100,30.14,0.8,Calm,Calm,-,0.07,Rain,Light Rain,0,2013-08-19 11:53:00
8:53 AM,64.9,64.9,100,30.15,1.2,Calm,Calm,-,0.00,,Overcast,0,2013-08-19 12:53:00
9:04 AM,66.2,64.4,94,30.15,2.5,Calm,Calm,-,0.00,Rain,Light Rain,0,2013-08-19 13:04:00
9:51 AM,66.2,64.4,94,30.15,2.5,Calm,Calm,-,0.00,,Overcast,0,2013-08-19 13:51:00
9:53 AM,66.0,64.9,96,30.14,2.5,Calm,Calm,-,0.00,,Overcast,0,2013-08-19 13:53:00
10:44 AM,66.2,64.4,94,30.14,2.5,Variable,4.6,-,0.01,Rain,Light Rain,0,2013-08-19 14:44:00
10:53 AM,66.9,66.0,97,30.14,2.5,North,3.5,-,0.01,,Overcast,360,2013-08-19 14:53:00
11:12 AM,66.2,64.4,94,30.14,3.0,Variable,4.6,-,0.00,,Overcast,0,2013-08-19 15:12:00
11:20 AM,66.2,66.2,100,30.15,9.0,Calm,Calm,-,0.00,,Overcast,0,2013-08-19 15:20:00
11:53 AM,69.1,64.9,87,30.14,10.0,Calm,Calm,-,0.00,,Overcast,0,2013-08-19 15:53:00
12:00 PM,69.8,66.2,88,30.14,10.0,ENE,4.6,-,N/A,,Overcast,70,2013-08-19 16:00:00
12:53 PM,70.0,64.0,81,30.14,10.0,Calm,Calm,-,N/A,,Overcast,0,2013-08-19 16:53:00
12:59 PM,71.6,64.4,78,30.14,10.0,Calm,Calm,-,N/A,,Overcast,0,2013-08-19 16:59:00
1:09 PM,71.6,64.4,78,30.13,10.0,Calm,Calm,-,N/A,,Overcast,0,2013-08-19 17:09:00
1:44 PM,71.6,66.2,83,30.13,10.0,Calm,Calm,-,0.00,Rain,Light Rain,0,2013-08-19 17:44:00
1:53 PM,72.0,64.9,78,30.12,10.0,Calm,Calm,-,0.00,,Overcast,0,2013-08-19 17:53:00
2:53 PM,73.9,64.9,73,30.12,10.0,WNW,3.5,-,N/A,,Mostly Cloudy,300,2013-08-19 18:53:00
3:53 PM,75.9,64.9,69,30.11,10.0,NW,5.8,-,N/A,,Mostly Cloudy,320,2013-08-19 19:53:00
4:53 PM,77.0,64.0,64,30.09,10.0,West,4.6,-,N/A,,Partly Cloudy,280,2013-08-19 20:53:00
5:53 PM,75.0,62.1,64,30.09,10.0,West,5.8,-,N/A,,Partly Cloudy,270,2013-08-19 21:53:00
6:53 PM,75.9,62.1,62,30.08,10.0,West,4.6,-,N/A,,Clear,280,2013-08-19 22:53:00
7:53 PM,73.0,61.0,66,30.09,10.0,West,6.9,-,N/A,,Clear,270,2013-08-19 23:53:00
8:53 PM,71.1,61.0,70,30.10,10.0,WNW,5.8,-,N/A,,Clear,290,2013-08-20 00:53:00
9:53 PM,70.0,61.0,73,30.12,10.0,West,4.6,-,N/A,,Clear,280,2013-08-20 01:53:00
10:53 PM,70.0,60.1,71,30.12,10.0,WSW,4.6,-,N/A,,Clear,240,2013-08-20 02:53:00
11:53 PM,66.9,59.0,76,30.13,10.0,Calm,Calm,-,N/A,,Clear,0,2013-08-20 03:53:00